Regional Weather Roundup
Issued by NWS Mt. Holly, NJ

Current Version | Previous Version | Text Only | Print | Product List | Glossary Off
Versions: 1 2 3 4 5 6 7 8 9 10 11 12 13 14 15 16 17 18 19 20 21 22 23 24 25 26 27 28 29 30 31 32 33 34 35 36 37 38 39 40 41 42 43 44 45 46 47 48 49 50

000
ASUS41 KPHI 281912
RWRPHI

REGIONAL WEATHER ROUNDUP
NATIONAL WEATHER SERVICE MOUNT HOLLY NJ
300 PM EDT FRI JUL 28 2017

NOTE:  "FAIR" INDICATES FEW OR NO CLOUDS BELOW 12,000 FEET WITH NO
SIGNIFICANT WEATHER AND/OR OBSTRUCTIONS TO VISIBILITY.

 * = STATION DOES NOT REPORT PRECIPITATION (E.G. RAIN, SNOW, ETC.)
        OR FOG.

NJZ015>026-282000-
SOUTHERN NEW JERSEY

CITY           SKY/WX    TMP DP  RH WIND       PRES   REMARKS
POMONA         CLOUDY    80  72  76 E12       29.81S
WILDWOOD*      CLOUDY    77  73  87 E8        29.80F
MILLVILLE      CLOUDY    77  76  96 SE5       29.80F
WRIGHTSTOWN    CLOUDY    83  69  63 E7        29.79R
MOUNT HOLLY    CLOUDY    84  69  60 VRB3      29.80S
TRENTON        CLOUDY    84  67  56 E5        29.81S

$$
NJZ001>014-282000-
NORTHERN NEW JERSEY

CITY           SKY/WX    TMP DP  RH WIND       PRES   REMARKS
SUSSEX         PTSUNNY   82  63  52 N7        29.84F
ANDOVER*         N/A     82  63  52 VRB3      29.84F
MORRISTOWN     MOSUNNY   84  68  58 NE8       29.82F
NEWARK         CLOUDY    84  67  56 E3        29.81F
TETERBORO      PTSUNNY   85  66  53 E3        29.80F
CALDWELL       PTSUNNY   83  66  56 CALM      29.82F
SOMERVILLE     CLOUDY    86  67  52 N6        29.79F
ALLAIRE*       CLOUDY    79  71  76 E8        29.84F
TOMS RIVER*    CLOUDY    82  71  69 E7        29.83S

$$
PAZ043-044-047-054-055-060>062-066>071-282000-
EASTERN PENNSYLVANIA

CITY           SKY/WX    TMP DP  RH WIND       PRES   REMARKS
PHILADELPHIA   CLOUDY    85  64  49 E3        29.80F
NORTH PHILA    LGT RAIN  85  66  53 E6        29.82S
BLUE BELL*     CLOUDY    79  68  69 SE5       29.82F
DOYLESTOWN     CLOUDY    82  68  62 CALM      29.82S
QUAKERTOWN*    CLOUDY    84  66  54 SE7       29.83F
PERKASIE*      FAIR      82  68  61 SE5       29.84F
POTTSTOWN      CLOUDY    83  66  56 VRB6      29.83F
LANCASTER      CLOUDY    82  69  64 E8        29.81F
COATESVILLE    CLOUDY    81  68  65 E8G15     29.83F
READING        MOSUNNY   84  69  60 E8        29.80F
ALLENTOWN      CLOUDY    84  67  56 NE7       29.82F
MOUNT POCONO   CLOUDY    73  64  73 E7        29.90F
HAZLETON       LGT RAIN  70  63  78 CALM      29.90F
LEHIGHTON      FAIR      81  64  57 E3        29.83F
WILKES BARRE   MOSUNNY   81  63  54 N8        29.85F

$$
DEZALL-MDZ008-012-015-019-020-282000-
DELAWARE AND EASTERN MARYLAND

CITY           SKY/WX    TMP DP  RH WIND       PRES   REMARKS
WILMINGTON     CLOUDY    80  72  76 SE8       29.80F
DOVER          LGT RAIN  77  77 100 E6        29.77F
GEORGETOWN     PTSUNNY   80  72  76 E8        29.78F
EASTON         TSTM      77  75  94 NE8       29.81S VSB 1/2
ABERDEEN       LGT RAIN  76  73  92 E5        29.79F FOG
PATUXENT       CLOUDY    80  75  84 SE3       29.75F
OCEAN CITY     CLOUDY    78  74  87 S6        29.78F
WALLOPS ISLAND CLOUDY    80  76  87 S13       29.78F
CAMBRIDGE      PTSUNNY   79  75  89 SE3       29.76F
SALISBURY      CLOUDY    84  75  74 S8        29.75F HX  92

$$
PAZ001-021-NYZ056-072-MDZ011-DCZ001-282000-
OTHER NEARBY LOCATIONS

CITY           SKY/WX    TMP DP  RH WIND       PRES   REMARKS
HARRISBURG     CLOUDY    81  68  64 E10       29.79F
STATE COLLEGE  PTSUNNY   77  68  73 NE9       29.84F
WILLIAMSPORT   PTSUNNY   83  67  58 NE8       29.82F
BINGHAMTON     CLOUDY    72  60  66 N9        29.91F
NEW YORK CITY  PTSUNNY   85  65  51 VRB3      29.84F
BALTIMORE      LGT RAIN  73  73 100 E8        29.78F
WASHINGTON DC  TSTM      75  74  96 N5        29.78R FOG

$$



USA.gov is the U.S. government's official web portal to all federal, state and local government web resources and services.